Terminal Aerodrome Forecast
Issued by NWS Upton, NY

Home | Current Version | Previous Version | Text Only | Print | Product List | Glossary On
Versions: 1 2 3 4 5 6 7 8 9 10 11 12 13 14 15 16 17 18 19 20 21 22 23 24 25 26 27 28 29 30 31 32 33 34 35 36 37 38 39 40 41
848
FTUS41 KOKX 191736
TAFISP
TAF
KISP 191736Z 1918/2018 33008KT P6SM SCT025 SCT250
      TEMPO 1918/1922 BKN025
     FM200100 35004KT P6SM SCT025 SCT250
     FM201000 VRB03KT P6SM SCT025 SCT250
     FM201500 06004KT P6SM SCT020 BKN200=

USA.gov is the U.S. government's official web portal to all federal, state and local government web resources and services.